4P/Faye (2021)

Japanese version
Home page
Updated on May 4, 2021

---------------------------------------------------------------------

* Profile

* Pictures

* Orbital Elements

Epoch 2021 Sept. 23.0 TT = JDT 2459480.5
T 2021 Sept.  9.42727 TT                                MPCW
q   1.6188953            (2000.0)            P               Q
n   0.13178441     Peri.  206.97556     +0.76775492     -0.63998043
a   3.8243710      Node   192.96047     +0.61015350     +0.74512648
e   0.5766898      Incl.    8.01299     +0.19561465     +0.18764745
P   7.48
From 3697 observations 2006 Apr. 20-2015 Jan. 2, mean residual 0".7.
     Nongravitational parameters A1 = -0.26, A2 = +0.5785.

* Finding Charts

* Magnitudes Graph

        m1 =   5.5 + 5 log d + 21.0 log r  [   ,240]  (             - 2022 May   7)
        m1 =  10.3 + 5 log d + 10.0 log r  [240,   ]  (2022 May   7 -             )

---------------------------------------------------------------------

The orbital elements are published on M.P.E.C. 2015-A10.
The charts are made with StellaNavigator Ver.10 (AstroArts).
The magnitudes graphs are made with Comet for Windows.

---------------------------------------------------------------------

Copyright(C) Seiichi Yoshida (comet@aerith.net). All rights reserved.